Saturday, January 20, 2018, 9:58 AM EST
Back to Local

KBLM, Belmar-farmingdale

Location: Farmingdale, NJ, United States Lat: 40.183
Local Time: 9:58 AM EST (14:58 GMT) Lon: -74.133
Time Zone: US/Eastern Elev: 157 ft

Show me the last for .
Show Coded

Time T Td Feel RH Dir Speed Gust Alt SLP Vis Weather Sky Remarks
2018-01-20 08:56 44 22 35 41 230° 16 25 29.93 29.94 10 CLR None
2018-01-20 07:56 42 23 34 46 240° 16 - 29.92 29.94 10 CLR None
2018-01-20 06:56 36 20 28 51 240° 13 - 29.92 29.93 10 CLR 6-hr Min Temp (7am): 34.0°F
6-hr Max Temp (7am): 36.0°F
2018-01-20 05:56 35 18 27 49 230° 12 - 29.93 29.94 10 CLR None
2018-01-20 04:56 35 17 27 47 230° 10 - 29.93 29.94 10 CLR None
2018-01-20 03:56 34 17 27 49 240° 9 - 29.94 29.95 10 CLR None
2018-01-20 01:56 35 16 28 45 230° 9 - 29.96 29.97 10 CLR None
2018-01-20 00:56 35 17 27 47 240° 10 - 29.95 29.96 10 CLR 6-hr Min Temp (1am): 34.0°F
6-hr Max Temp (1am): 37.0°F
2018-01-19 23:56 34 17 27 49 220° 9 - 29.97 29.99 10 CLR 24-hr Min Temp (12am): 17.1°F
24-hr Max Temp (12am): 42.1°F
2018-01-19 22:56 35 17 29 47 220° 7 - 29.99 30.01 10 CLR None
2018-01-19 21:56 37 17 32 43 220° 7 - 30.01 30.02 10 CLR None
2018-01-19 20:56 36 18 30 47 210° 7 - 30.00 30.02 10 CLR None
2018-01-19 19:56 36 18 31 47 210° 6 - 30.01 30.03 10 CLR None
2018-01-19 18:56 36 18 32 47 220° 5 - 30.01 30.03 10 CLR 6-hr Min Temp (7pm): 36.0°F
6-hr Max Temp (7pm): 42.1°F
2018-01-19 17:56 38 17 34 42 220° 5 - - - 10 CLR None
2018-01-19 16:56 40 17 34 39 240° 9 - - - 10 CLR None
2018-01-19 15:56 41 17 32 37 260° 13 20 30.00 30.01 10 CLR None
2018-01-19 14:56 40 16 30 37 260° 13 22 30.00 30.01 10 CLR None
2018-01-19 13:56 40 16 30 37 270° 16 21 30.01 30.02 10 CLR None
2018-01-19 12:56 39 16 30 38 240° 10 18 30.03 30.04 10 CLR 6-hr Min Temp (1pm): 19.9°F
6-hr Max Temp (1pm): 39.0°F
2018-01-19 11:56 38 14 28 36 280° 15 18 30.05 30.07 10 CLR None
2018-01-19 10:56 35 15 26 43 250° 13 - - - 10 CLR None

Support USWX by starting your Amazon purchase here.